Content
SEND FEEDBACK

Daily
Averages
Monthly
Summary
United States of America

GREENSBURG, INDIANA


Home > North America > United States > Indiana
Elevation: 949 feet     Latitude: 39 20N     Longitude: 085 28W

WEATHER
 
SELECT A DAY
Number of Records: 172,729;   Date Range: 10/15/98 - 7/23/14
 
SHARE

PRINT THIS DATA

[ ← Previous Day ]
WEATHER ALMANAC - JANUARY 4, 2014
[ Next Day → ]
[ °C ]   °F
Weather ElementAverageHighLow
Temperature29 °F37.9 °F (5:53 pm)16 °F (1:53 am)
Dewpoint15.3 °F24.1 °F (9:53 pm)6.1 °F (1:53 am)
Humidity57.1 %68 % (2:53 am)48 % (1:53 pm)
Barometer30.09 in30.20 in (1:53 am)30.01 in (5:53 pm)
Wind Speed13.6 mph20.7 mph (9:53 am)
Weather ElementAverage
Visibility10 mi
Wind DirectionS (183 °)

Weather ElementTotal
Precipitation---
Heating Degree Days38.1 (Base 65)
Averaged from 23 records on January 4, 2014
WEATHER CONDITIONS BREAKOUT
WIND DIRECTION BREAKOUT
WEATHER BY HOUR - JANUARY 4, 2014
[ °C ]   °F
Local TimeTemperatureDewpointHumidityBarometerVisibilityWind DirectionWind SpeedGust SpeedPrecipitationEventsConditions
1:53 AM16.0 °F6.1 °F65 %30.20 in10.0 miSouth (180°)12.7 mphClear
2:53 AM16.0 °F7.0 °F68 %30.19 in10.0 miSouth (170°)15.0 mphClear
3:53 AM17.1 °F7.0 °F65 %30.17 in10.0 miSouth (170°)13.8 mphClear
4:53 AM18.0 °F7.0 °F62 %30.16 in10.0 miSouth (180°)15.0 mphClear
5:53 AM18.0 °F8.1 °F65 %30.15 in10.0 miSouth (180°)17.3 mphClear
6:53 AM19.0 °F8.1 °F62 %30.13 in10.0 miSouth (180°)16.1 mphClear
7:53 AM19.0 °F9.0 °F65 %30.13 in10.0 miSouth (190°)16.1 mphClear
8:53 AM21.0 °F10.0 °F63 %30.13 in10.0 miSouth (180°)17.3 mphClear
9:53 AM24.1 °F12.0 °F60 %30.11 in10.0 miSouth (190°)20.7 mphClear
10:53 AM28.0 °F14.0 °F56 %30.11 in10.0 miSouth (190°)18.4 mphClear
11:53 AM30.9 °F17.1 °F57 %30.10 in10.0 miSSW (200°)13.8 mphClear
12:53 PM34.0 °F18.0 °F52 %30.06 in10.0 miSouth (190°)11.5 mphClear
1:53 PM36.0 °F18.0 °F48 %30.04 in10.0 miSouth (190°)17.3 mphClear
2:53 PM36.0 °F19.0 °F50 %30.03 in10.0 miSouth (180°)16.1 mphClear
3:53 PM37.0 °F19.0 °F48 %30.03 in10.0 miSouth (180°)15.0 mphClear
4:53 PM37.0 °F19.0 °F48 %30.03 in10.0 miSouth (180°)16.1 mphOvercast
5:53 PM37.9 °F19.9 °F48 %30.01 in10.0 miSouth (180°)12.7 mphOvercast
6:53 PM37.0 °F21.9 °F54 %30.03 in10.0 miSouth (190°)6.9 mphOvercast
7:53 PM37.0 °F21.9 °F54 %30.05 in10.0 miSouth (180°)8.1 mphOvercast
8:53 PM37.0 °F21.9 °F54 %30.06 in10.0 miSouth (180°)10.4 mphOvercast
9:53 PM36.0 °F24.1 °F62 %30.04 in10.0 miSSE (160°)6.9 mphOvercast
10:53 PM37.0 °F21.9 °F54 %30.05 in10.0 miSouth (190°)4.6 mphOvercast
11:53 PM37.9 °F21.9 °F53 %30.04 in10.0 miSSW (200°)10.4 mphOvercast
Hourly data recorded from KGEZ, located miles away from Greensburg, Indiana







STORIES FROM OUR PARTNERS